When you browse on this site, cookies collect data to enhance your experience and personalize the content and advertising you see.
Visit our Privacy Policy to learn more. By continuing to use the site, you agree to this use of cookies and data.
  • în România
  • Lista ţărilor
  • Pe 7 zile
  • Temperatura apei
  • Meteo pe hartă
  • Widget-uri
  • user-avatar
    Intrare

    Meteo pe oră la Sarajevo

    Astăzi, 31 Mai, Duminică

    Timp Temperatura Precipitaţii Vânt Presiune Umiditate
    00:00 +8°C° 0.2 mm 1 m/s 688 mmHg 95%
    01:00 +8°C° 0.2 mm 1 m/s 688 mmHg 94%
    02:00 +8°C° 0 mm 1 m/s 687 mmHg 94%
    03:00 +7°C° 0 mm 1 m/s 687 mmHg 94%
    04:00 +7°C° 0 mm 1 m/s 687 mmHg 94%
    05:00 +8°C° 0 mm 1 m/s 687 mmHg 90%
    06:00 +9°C° 0 mm 1 m/s 687 mmHg 86%
    07:00 +10°C° 0 mm 1 m/s 687 mmHg 83%
    08:00 +11°C° 0 mm 1 m/s 688 mmHg 73%
    09:00 +13°C° 0 mm 1 m/s 688 mmHg 63%
    10:00 +15°C° 0 mm 1 m/s 688 mmHg 53%
    11:00 +16°C° 0 mm 1 m/s 688 mmHg 50%
    12:00 +16°C° 0 mm 2 m/s 688 mmHg 47%
    13:00 +17°C° 0 mm 2 m/s 688 mmHg 45%
    14:00 +16°C° 0.3 mm 2 m/s 688 mmHg 52%
    15:00 +15°C° 0.3 mm 2 m/s 687 mmHg 60%
    16:00 +14°C° 0.3 mm 2 m/s 687 mmHg 68%
    17:00 +13°C° 0.6 mm 2 m/s 687 mmHg 76%
    18:00 +10°C° 0.6 mm 2 m/s 687 mmHg 83%
    19:00 +10°C° 0.6 mm 1 m/s 686 mmHg 91%
    20:00 +9°C° 0.1 mm 1 m/s 686 mmHg 92%
    21:00 +8°C° 0.1 mm 1 m/s 686 mmHg 93%
    22:00 +7°C° 0.1 mm 1 m/s 687 mmHg 94%
    23:00 +6°C° 0 mm 1 m/s 686 mmHg 94%

    Mâine, 1 Iunie, Luni

    Timp Temperatura Precipitaţii Vânt Presiune Umiditate
    00:00 +6°C° 0 mm 1 m/s 686 mmHg 94%
    01:00 +6°C° 0 mm 1 m/s 686 mmHg 94%
    02:00 +6°C° 0 mm 1 m/s 686 mmHg 94%
    03:00 +6°C° 0 mm 1 m/s 685 mmHg 93%
    04:00 +6°C° 0 mm 1 m/s 685 mmHg 93%
    05:00 +7°C° 0.1 mm 1 m/s 686 mmHg 92%
    06:00 +8°C° 0.1 mm 1 m/s 686 mmHg 91%
    07:00 +9°C° 0.1 mm 1 m/s 686 mmHg 90%
    08:00 +10°C° 0 mm 1 m/s 687 mmHg 88%
    09:00 +10°C° 0 mm 2 m/s 687 mmHg 86%
    10:00 +10°C° 0 mm 2 m/s 688 mmHg 84%
    11:00 +12°C° 0.1 mm 2 m/s 688 mmHg 83%
    12:00 +12°C° 0.1 mm 2 m/s 688 mmHg 82%
    13:00 +12°C° 0.1 mm 3 m/s 687 mmHg 80%
    14:00 +12°C° 0.1 mm 3 m/s 687 mmHg 80%
    15:00 +12°C° 0.1 mm 3 m/s 687 mmHg 79%
    16:00 +12°C° 0.1 mm 3 m/s 688 mmHg 78%
    17:00 +12°C° 0 mm 2 m/s 687 mmHg 82%
    18:00 +10°C° 0 mm 2 m/s 687 mmHg 87%
    19:00 +9°C° 0 mm 2 m/s 687 mmHg 91%
    20:00 +9°C° 0 mm 2 m/s 687 mmHg 92%
    21:00 +8°C° 0 mm 2 m/s 687 mmHg 94%
    22:00 +8°C° 0 mm 2 m/s 687 mmHg 96%
    23:00 +7°C° 0 mm 2 m/s 687 mmHg 96%

    Poimâine, 2 Iunie, Marţi

    Timp Temperatura Precipitaţii Vânt Presiune Umiditate
    00:00 +7°C° 0 mm 2 m/s 687 mmHg 96%
    01:00 +7°C° 0 mm 2 m/s 686 mmHg 96%
    02:00 +6°C° 0 mm 2 m/s 686 mmHg 95%
    03:00 +7°C° 0 mm 1 m/s 686 mmHg 94%
    04:00 +7°C° 0 mm 1 m/s 686 mmHg 94%
    05:00 +9°C° 0 mm 1 m/s 686 mmHg 90%
    06:00 +10°C° 0 mm 1 m/s 687 mmHg 85%
    07:00 +12°C° 0 mm 1 m/s 687 mmHg 81%
    08:00 +13°C° 0.1 mm 2 m/s 687 mmHg 75%
    09:00 +15°C° 0.1 mm 2 m/s 688 mmHg 68%
    10:00 +16°C° 0.1 mm 2 m/s 688 mmHg 62%
    11:00 +16°C° 0.1 mm 2 m/s 688 mmHg 61%
    12:00 +17°C° 0.1 mm 2 m/s 688 mmHg 60%
    13:00 +17°C° 0.1 mm 2 m/s 687 mmHg 59%
    14:00 +17°C° 0.1 mm 2 m/s 687 mmHg 60%
    15:00 +17°C° 0.1 mm 2 m/s 687 mmHg 61%
    16:00 +17°C° 0.1 mm 2 m/s 687 mmHg 62%
    17:00 +15°C° 0.1 mm 2 m/s 686 mmHg 70%
    18:00 +13°C° 0.1 mm 2 m/s 686 mmHg 79%
    19:00 +12°C° 0.1 mm 1 m/s 685 mmHg 87%
    20:00 +11°C° 0 mm 1 m/s 685 mmHg 89%
    21:00 +10°C° 0 mm 1 m/s 685 mmHg 91%
    22:00 +8°C° 0 mm 1 m/s 685 mmHg 93%
    23:00 +8°C° 0 mm 1 m/s 685 mmHg 93%

    3 Iunie, Miercuri

    Timp Temperatura Precipitaţii Vânt Presiune Umiditate
    00:00 +7°C° 0 mm 1 m/s 684 mmHg 93%
    01:00 +7°C° 0 mm 1 m/s 684 mmHg 93%
    02:00 +7°C° 0 mm 1 m/s 684 mmHg 92%
    03:00 +6°C° 0 mm 1 m/s 684 mmHg 91%
    04:00 +6°C° 0 mm 1 m/s 683 mmHg 90%
    05:00 +8°C° 0 mm 1 m/s 684 mmHg 85%
    06:00 +10°C° 0 mm 1 m/s 684 mmHg 79%
    07:00 +12°C° 0 mm 1 m/s 684 mmHg 74%
    08:00 +15°C° 0 mm 1 m/s 685 mmHg 66%
    09:00 +18°C° 0 mm 1 m/s 685 mmHg 58%
    10:00 +20°C° 0 mm 1 m/s 686 mmHg 50%
    11:00 +20°C° 0 mm 1 m/s 686 mmHg 50%
    12:00 +19°C° 0 mm 2 m/s 685 mmHg 51%
    13:00 +19°C° 0 mm 2 m/s 685 mmHg 52%
    14:00 +19°C° 0.3 mm 2 m/s 685 mmHg 58%
    15:00 +18°C° 0.3 mm 2 m/s 685 mmHg 64%
    16:00 +18°C° 0.3 mm 2 m/s 685 mmHg 71%
    17:00 +16°C° 0.3 mm 2 m/s 685 mmHg 77%
    18:00 +14°C° 0.3 mm 1 m/s 684 mmHg 83%
    19:00 +13°C° 0.3 mm 1 m/s 684 mmHg 89%
    20:00 +12°C° 0 mm 1 m/s 684 mmHg 90%
    21:00 +11°C° 0 mm 1 m/s 685 mmHg 91%
    22:00 +10°C° 0 mm 1 m/s 685 mmHg 92%
    23:00 +10°C° 0 mm 1 m/s 685 mmHg 93%

    4 Iunie, Joi

    Timp Temperatura Precipitaţii Vânt Presiune Umiditate
    00:00 +10°C° 0 mm 1 m/s 685 mmHg 93%
    01:00 +9°C° 0 mm 1 m/s 685 mmHg 94%
    02:00 +9°C° 0 mm 1 m/s 685 mmHg 94%
    03:00 +9°C° 0 mm 1 m/s 685 mmHg 94%
    04:00 +9°C° 0 mm 1 m/s 685 mmHg 94%
    05:00 +11°C° 0 mm 1 m/s 686 mmHg 90%
    06:00 +12°C° 0 mm 1 m/s 686 mmHg 87%
    07:00 +14°C° 0 mm 1 m/s 687 mmHg 83%
    08:00 +16°C° 0 mm 1 m/s 687 mmHg 75%
    09:00 +17°C° 0 mm 2 m/s 687 mmHg 68%
    10:00 +19°C° 0 mm 2 m/s 688 mmHg 61%
    11:00 +19°C° 0 mm 2 m/s 688 mmHg 61%
    12:00 +20°C° 0 mm 2 m/s 688 mmHg 62%
    13:00 +20°C° 0 mm 3 m/s 688 mmHg 63%
    14:00 +20°C° 0.2 mm 2 m/s 688 mmHg 65%
    15:00 +19°C° 0.2 mm 2 m/s 688 mmHg 68%
    16:00 +19°C° 0.2 mm 2 m/s 688 mmHg 70%
    17:00 +18°C° 0.1 mm 2 m/s 687 mmHg 77%
    18:00 +16°C° 0.1 mm 2 m/s 687 mmHg 83%
    19:00 +14°C° 0.1 mm 1 m/s 687 mmHg 90%
    20:00 +13°C° 0 mm 1 m/s 687 mmHg 91%
    21:00 +13°C° 0 mm 1 m/s 687 mmHg 92%
    22:00 +12°C° 0 mm 2 m/s 687 mmHg 93%
    23:00 +10°C° 0 mm 2 m/s 687 mmHg 92%

    5 Iunie, Vineri

    Timp Temperatura Precipitaţii Vânt Presiune Umiditate
    00:00 +10°C° 0 mm 2 m/s 687 mmHg 92%
    01:00 +10°C° 0 mm 2 m/s 686 mmHg 91%
    02:00 +10°C° 0 mm 2 m/s 686 mmHg 90%
    03:00 +10°C° 0 mm 2 m/s 686 mmHg 89%
    04:00 +10°C° 0 mm 2 m/s 686 mmHg 87%
    05:00 +12°C° 0 mm 2 m/s 687 mmHg 83%
    06:00 +14°C° 0 mm 2 m/s 687 mmHg 79%
    07:00 +16°C° 0 mm 2 m/s 687 mmHg 75%
    08:00 +17°C° 0 mm 3 m/s 688 mmHg 70%
    09:00 +19°C° 0 mm 3 m/s 688 mmHg 64%
    10:00 +20°C° 0 mm 3 m/s 688 mmHg 59%
    11:00 +21°C° 0 mm 3 m/s 688 mmHg 58%
    12:00 +21°C° 0 mm 4 m/s 688 mmHg 58%
    13:00 +22°C° 0 mm 4 m/s 688 mmHg 58%
    14:00 +22°C° 0 mm 4 m/s 688 mmHg 59%
    15:00 +21°C° 0 mm 3 m/s 688 mmHg 60%
    16:00 +21°C° 0 mm 3 m/s 688 mmHg 61%
    17:00 +19°C° 0 mm 3 m/s 687 mmHg 68%
    18:00 +18°C° 0 mm 2 m/s 687 mmHg 75%
    19:00 +16°C° 0 mm 2 m/s 687 mmHg 82%
    20:00 +15°C° 0 mm 2 m/s 687 mmHg 84%
    21:00 +14°C° 0 mm 2 m/s 687 mmHg 85%
    22:00 +13°C° 0 mm 2 m/s 687 mmHg 87%
    23:00 +13°C° 0 mm 2 m/s 687 mmHg 85%
    Arată mai mult